Time,TemperatureF,DewpointF,PressureIn,WindDirection,WindDirectionDegrees,WindSpeedMPH,WindSpeedGustMPH,Humidity,HourlyPrecipIn,Conditions,Clouds,dailyrainin,SoftwareType,DateUTC
2013-02-11 00:01:00,33.0,23.0,29.98,SW,223,10.0,12.0,67,0.00,,,0.00,,2013-02-11 08:01:00,
2013-02-11 00:11:00,32.0,23.0,29.99,SW,233,9.0,11.0,69,0.00,,,0.00,,2013-02-11 08:11:00,
2013-02-11 00:21:00,32.0,23.0,29.99,SW,233,9.0,11.0,69,0.00,,,0.00,,2013-02-11 08:21:00,
2013-02-11 00:31:00,32.0,23.0,29.99,SW,226,8.0,12.0,70,0.00,,,0.00,,2013-02-11 08:31:00,
2013-02-11 00:42:00,32.0,23.0,29.98,West,265,6.0,11.0,70,0.00,,,0.00,,2013-02-11 08:42:00,
2013-02-11 00:52:00,32.0,23.0,29.98,West,265,6.0,11.0,70,0.00,,,0.00,,2013-02-11 08:52:00,
2013-02-11 01:01:00,29.0,22.0,29.99,WSW,254,7.0,12.0,74,0.00,,,0.00,,2013-02-11 09:01:00,
2013-02-11 01:12:00,29.0,22.0,29.99,WSW,254,7.0,12.0,74,0.00,,,0.00,,2013-02-11 09:12:00,
2013-02-11 01:21:00,29.0,22.0,29.99,WSW,255,7.0,11.0,75,0.00,,,0.00,,2013-02-11 09:21:00,
2013-02-11 01:31:00,29.0,22.0,29.99,WSW,247,9.0,13.0,76,0.00,,,0.00,,2013-02-11 09:31:00,
2013-02-11 01:41:00,29.0,22.0,29.99,WSW,247,9.0,13.0,76,0.00,,,0.00,,2013-02-11 09:41:00,
2013-02-11 01:52:00,28.0,21.0,29.99,WSW,253,7.0,12.0,76,0.00,,,0.00,,2013-02-11 09:52:00,
2013-02-11 02:01:00,29.0,22.0,29.99,WSW,249,9.0,12.0,76,0.00,,,0.00,,2013-02-11 10:01:00,
2013-02-11 02:11:00,29.0,22.0,29.99,WSW,249,9.0,12.0,76,0.00,,,0.00,,2013-02-11 10:11:00,
2013-02-11 02:21:00,28.0,22.0,29.99,WSW,255,8.0,12.0,77,0.00,,,0.00,,2013-02-11 10:21:00,
2013-02-11 02:31:00,27.0,21.0,29.99,WSW,255,7.0,11.0,79,0.00,,,0.00,,2013-02-11 10:31:00,
2013-02-11 02:41:00,27.0,21.0,29.99,WSW,255,7.0,11.0,79,0.00,,,0.00,,2013-02-11 10:41:00,
2013-02-11 02:52:00,26.0,20.0,29.99,WSW,250,6.0,10.0,79,0.00,,,0.00,,2013-02-11 10:52:00,
2013-02-11 03:01:00,26.0,20.0,29.98,West,265,7.0,13.0,79,0.00,,,0.00,,2013-02-11 11:01:00,
2013-02-11 03:11:00,26.0,20.0,29.98,West,265,7.0,13.0,79,0.00,,,0.00,,2013-02-11 11:11:00,
2013-02-11 03:21:00,26.0,21.0,29.98,WSW,245,6.0,10.0,80,0.00,,,0.00,,2013-02-11 11:21:00,
2013-02-11 03:32:00,26.0,20.0,29.98,SSW,206,2.0,6.0,78,0.00,,,0.00,,2013-02-11 11:32:00,
2013-02-11 03:42:00,27.0,20.0,29.98,North,0,0.0,2.0,73,0.00,,,0.00,,2013-02-11 11:42:00,
2013-02-11 03:52:00,27.0,20.0,29.98,North,0,0.0,2.0,73,0.00,,,0.00,,2013-02-11 11:52:00,
2013-02-11 04:02:00,29.0,18.0,29.98,North,0,0.0,2.0,64,0.00,,,0.00,,2013-02-11 12:02:00,
2013-02-11 04:12:00,29.0,18.0,29.98,North,0,0.0,2.0,64,0.00,,,0.00,,2013-02-11 12:12:00,
2013-02-11 04:22:00,30.0,18.0,29.98,North,0,0.0,2.0,60,0.00,,,0.00,,2013-02-11 12:22:00,
2013-02-11 04:31:00,31.0,17.0,29.99,ESE,109,1.0,3.0,56,0.00,,,0.00,,2013-02-11 12:31:00,
2013-02-11 04:42:00,32.0,16.0,29.98,East,96,1.0,3.0,52,0.00,,,0.00,,2013-02-11 12:42:00,
2013-02-11 04:52:00,32.0,16.0,29.98,East,96,1.0,3.0,52,0.00,,,0.00,,2013-02-11 12:52:00,
2013-02-11 05:01:00,32.0,15.0,29.99,ENE,58,1.0,5.0,50,0.00,,,0.00,,2013-02-11 13:01:00,
2013-02-11 05:11:00,33.0,16.0,29.99,ENE,71,2.0,6.0,49,0.00,,,0.00,,2013-02-11 13:11:00,
2013-02-11 05:21:00,33.0,16.0,29.99,ENE,71,2.0,6.0,49,0.00,,,0.00,,2013-02-11 13:21:00,
2013-02-11 05:32:00,34.0,15.0,29.99,East,82,6.0,19.0,46,0.00,,,0.00,,2013-02-11 13:32:00,
2013-02-11 05:41:00,34.0,15.0,29.99,East,82,6.0,19.0,46,0.00,,,0.00,,2013-02-11 13:41:00,
2013-02-11 05:52:00,35.0,15.0,29.99,ENE,66,11.0,17.0,44,0.00,,,0.00,,2013-02-11 13:52:00,
2013-02-11 06:01:00,36.0,15.0,29.99,ENE,73,9.0,16.0,42,0.00,,,0.00,,2013-02-11 14:01:00,
2013-02-11 06:11:00,36.0,15.0,29.99,ENE,73,9.0,16.0,42,0.00,,,0.00,,2013-02-11 14:11:00,
2013-02-11 06:21:00,35.0,15.0,30.00,ENE,68,8.0,16.0,43,0.00,,,0.00,,2013-02-11 14:21:00,
2013-02-11 06:32:00,35.0,15.0,30.01,ENE,76,6.0,11.0,43,0.00,,,0.00,,2013-02-11 14:32:00,
2013-02-11 06:41:00,35.0,15.0,30.01,ENE,62,9.0,16.0,44,0.00,,,0.00,,2013-02-11 14:41:00,
2013-02-11 06:52:00,35.0,15.0,30.01,ENE,62,9.0,16.0,44,0.00,,,0.00,,2013-02-11 14:52:00,
2013-02-11 07:01:00,35.0,15.0,30.02,East,87,6.0,17.0,43,0.00,,,0.00,,2013-02-11 15:01:00,
2013-02-11 07:11:00,35.0,15.0,30.02,East,87,6.0,17.0,43,0.00,,,0.00,,2013-02-11 15:11:00,
2013-02-11 07:22:00,35.0,15.0,30.02,East,92,7.0,11.0,43,0.00,,,0.00,,2013-02-11 15:22:00,
2013-02-11 07:31:00,35.0,14.0,30.03,ESE,117,10.0,16.0,42,0.00,,,0.00,,2013-02-11 15:31:00,
2013-02-11 07:41:00,35.0,14.0,30.04,ESE,123,7.0,13.0,41,0.00,,,0.00,,2013-02-11 15:41:00,
2013-02-11 07:52:00,35.0,14.0,30.04,ESE,123,7.0,13.0,41,0.00,,,0.00,,2013-02-11 15:52:00,
2013-02-11 08:01:00,36.0,15.0,30.05,East,85,5.0,11.0,41,0.00,,,0.00,,2013-02-11 16:01:00,
2013-02-11 08:11:00,38.0,14.0,30.06,ESE,108,8.0,12.0,37,0.00,,,0.00,,2013-02-11 16:11:00,
2013-02-11 08:21:00,38.0,14.0,30.06,ESE,108,8.0,12.0,37,0.00,,,0.00,,2013-02-11 16:21:00,
2013-02-11 08:31:00,38.0,13.0,30.07,East,100,9.0,16.0,36,0.00,,,0.00,,2013-02-11 16:31:00,
2013-02-11 08:41:00,39.0,13.0,30.08,ESE,109,9.0,17.0,34,0.00,,,0.00,,2013-02-11 16:41:00,
2013-02-11 08:52:00,39.0,13.0,30.08,ESE,109,9.0,17.0,34,0.00,,,0.00,,2013-02-11 16:52:00,
2013-02-11 09:01:00,39.0,12.0,30.09,ESE,102,11.0,18.0,33,0.00,,,0.00,,2013-02-11 17:01:00,
2013-02-11 09:11:00,39.0,12.0,30.09,ESE,102,11.0,18.0,33,0.00,,,0.00,,2013-02-11 17:11:00,
2013-02-11 09:21:00,40.0,13.0,30.09,East,97,13.0,17.0,33,0.00,,,0.00,,2013-02-11 17:21:00,
2013-02-11 09:31:00,40.0,13.0,30.09,ESE,102,13.0,18.0,32,0.00,,,0.00,,2013-02-11 17:31:00,
2013-02-11 09:41:00,40.0,13.0,30.09,ESE,102,13.0,18.0,32,0.00,,,0.00,,2013-02-11 17:41:00,
2013-02-11 09:52:00,41.0,13.0,30.10,East,88,11.0,18.0,31,0.00,,,0.00,,2013-02-11 17:52:00,
2013-02-11 10:01:00,42.0,13.0,30.10,East,91,12.0,18.0,30,0.00,,,0.00,,2013-02-11 18:01:00,
2013-02-11 10:11:00,42.0,13.0,30.10,East,91,12.0,18.0,30,0.00,,,0.00,,2013-02-11 18:11:00,
2013-02-11 10:21:00,42.0,13.0,30.11,East,100,12.0,17.0,30,0.00,,,0.00,,2013-02-11 18:21:00,
2013-02-11 10:31:00,42.0,13.0,30.11,East,93,11.0,15.0,30,0.00,,,0.00,,2013-02-11 18:31:00,
2013-02-11 10:41:00,43.0,13.0,30.11,East,97,12.0,18.0,29,0.00,,,0.00,,2013-02-11 18:41:00,
2013-02-11 10:53:00,43.0,13.0,30.11,East,97,12.0,18.0,29,0.00,,,0.00,,2013-02-11 18:53:00,
2013-02-11 11:01:00,43.0,12.0,30.11,East,95,11.0,18.0,28,0.00,,,0.00,,2013-02-11 19:01:00,
2013-02-11 11:11:00,43.0,11.0,30.11,East,90,12.0,18.0,27,0.00,,,0.00,,2013-02-11 19:11:00,
2013-02-11 11:21:00,43.0,11.0,30.11,East,90,12.0,18.0,27,0.00,,,0.00,,2013-02-11 19:21:00,
2013-02-11 11:31:00,44.0,10.0,30.11,East,84,11.0,22.0,25,0.00,,,0.00,,2013-02-11 19:31:00,
2013-02-11 11:41:00,44.0,10.0,30.11,East,84,11.0,22.0,25,0.00,,,0.00,,2013-02-11 19:41:00,
2013-02-11 11:51:00,45.0,10.0,30.10,East,91,13.0,20.0,24,0.00,,,0.00,,2013-02-11 19:51:00,
2013-02-11 12:01:00,46.0,10.0,30.10,ENE,71,13.0,23.0,23,0.00,,,0.00,,2013-02-11 20:01:00,
2013-02-11 12:11:00,45.0,9.0,30.09,East,99,11.0,21.0,23,0.00,,,0.00,,2013-02-11 20:11:00,
2013-02-11 12:21:00,45.0,9.0,30.09,East,99,11.0,21.0,23,0.00,,,0.00,,2013-02-11 20:21:00,
2013-02-11 12:31:00,46.0,9.0,30.09,East,87,12.0,19.0,22,0.00,,,0.00,,2013-02-11 20:31:00,
2013-02-11 12:41:00,46.0,8.0,30.08,East,94,11.0,24.0,21,0.00,,,0.00,,2013-02-11 20:41:00,
2013-02-11 12:52:00,46.0,8.0,30.08,East,94,11.0,24.0,21,0.00,,,0.00,,2013-02-11 20:52:00,
2013-02-11 13:01:00,46.0,7.0,30.08,East,93,13.0,22.0,20,0.00,,,0.00,,2013-02-11 21:01:00,
2013-02-11 13:11:00,47.0,8.0,30.07,East,88,11.0,18.0,20,0.00,,,0.00,,2013-02-11 21:11:00,
2013-02-11 13:21:00,47.0,8.0,30.07,East,88,11.0,18.0,20,0.00,,,0.00,,2013-02-11 21:21:00,
2013-02-11 13:31:00,46.0,6.0,30.07,ESE,119,7.0,14.0,19,0.00,,,0.00,,2013-02-11 21:31:00,
2013-02-11 13:41:00,46.0,6.0,30.07,ESE,119,7.0,14.0,19,0.00,,,0.00,,2013-02-11 21:41:00,
2013-02-11 13:52:00,46.0,6.0,30.07,ESE,119,7.0,14.0,19,0.00,,,0.00,,2013-02-11 21:52:00,
2013-02-11 14:01:00,48.0,5.0,30.06,East,94,9.0,18.0,17,0.00,,,0.00,,2013-02-11 22:01:00,
2013-02-11 14:11:00,48.0,5.0,30.07,East,97,7.0,16.0,17,0.00,,,0.00,,2013-02-11 22:11:00,
2013-02-11 14:21:00,48.0,5.0,30.07,East,97,7.0,16.0,17,0.00,,,0.00,,2013-02-11 22:21:00,
2013-02-11 14:31:00,48.0,5.0,30.06,ESE,114,6.0,17.0,17,0.00,,,0.00,,2013-02-11 22:31:00,
2013-02-11 14:41:00,48.0,5.0,30.06,ESE,114,6.0,17.0,17,0.00,,,0.00,,2013-02-11 22:41:00,
2013-02-11 14:52:00,48.0,5.0,30.07,East,94,5.0,14.0,17,0.00,,,0.00,,2013-02-11 22:52:00,
2013-02-11 15:01:00,48.0,5.0,30.06,SSW,195,3.0,9.0,17,0.00,,,0.00,,2013-02-11 23:01:00,
2013-02-11 15:11:00,48.0,5.0,30.06,SSW,195,3.0,9.0,17,0.00,,,0.00,,2013-02-11 23:11:00,
2013-02-11 15:21:00,49.0,6.0,30.06,SSE,151,3.0,12.0,17,0.00,,,0.00,,2013-02-11 23:21:00,
2013-02-11 15:31:00,48.0,5.0,30.07,South,181,2.0,8.0,17,0.00,,,0.00,,2013-02-11 23:31:00,
2013-02-11 15:41:00,48.0,5.0,30.07,South,181,2.0,8.0,17,0.00,,,0.00,,2013-02-11 23:41:00,
2013-02-11 15:52:00,50.0,6.0,30.07,WNW,284,4.0,8.0,16,0.00,,,0.00,,2013-02-11 23:52:00,
2013-02-11 16:01:00,50.0,4.0,30.07,ESE,102,6.0,8.0,15,0.00,,,0.00,,2013-02-12 00:01:00,
2013-02-11 16:11:00,50.0,4.0,30.07,ESE,102,6.0,8.0,15,0.00,,,0.00,,2013-02-12 00:11:00,
2013-02-11 16:21:00,48.0,3.0,30.07,ESE,109,2.0,7.0,15,0.00,,,0.00,,2013-02-12 00:21:00,
2013-02-11 16:31:00,48.0,3.0,30.08,South,187,2.0,11.0,15,0.00,,,0.00,,2013-02-12 00:31:00,
2013-02-11 16:42:00,48.0,3.0,30.08,South,187,2.0,11.0,15,0.00,,,0.00,,2013-02-12 00:42:00,
2013-02-11 16:52:00,48.0,3.0,30.08,ENE,65,1.0,10.0,15,0.00,,,0.00,,2013-02-12 00:52:00,
2013-02-11 17:01:00,47.0,2.0,30.09,East,87,8.0,16.0,15,0.00,,,0.00,,2013-02-12 01:01:00,
2013-02-11 17:11:00,47.0,2.0,30.09,East,87,8.0,16.0,15,0.00,,,0.00,,2013-02-12 01:11:00,
2013-02-11 17:21:00,46.0,2.0,30.10,East,94,4.0,9.0,16,0.00,,,0.00,,2013-02-12 01:21:00,
2013-02-11 17:31:00,45.0,2.0,30.11,ESE,107,2.0,7.0,16,0.00,,,0.00,,2013-02-12 01:31:00,
2013-02-11 17:41:00,43.0,4.0,30.11,North,355,1.0,4.0,19,0.00,,,0.00,,2013-02-12 01:41:00,
2013-02-11 17:52:00,43.0,4.0,30.11,North,355,1.0,4.0,19,0.00,,,0.00,,2013-02-12 01:52:00,
2013-02-11 18:01:00,40.0,4.0,30.11,WNW,292,1.0,3.0,22,0.00,,,0.00,,2013-02-12 02:01:00,
2013-02-11 18:11:00,39.0,3.0,30.11,West,263,4.0,6.0,22,0.00,,,0.00,,2013-02-12 02:11:00,
2013-02-11 18:21:00,39.0,3.0,30.11,West,263,4.0,6.0,22,0.00,,,0.00,,2013-02-12 02:21:00,
2013-02-11 18:31:00,39.0,4.0,30.11,WSW,258,3.0,7.0,23,0.00,,,0.00,,2013-02-12 02:31:00,
2013-02-11 18:41:00,39.0,4.0,30.11,WSW,258,3.0,7.0,23,0.00,,,0.00,,2013-02-12 02:41:00,
2013-02-11 18:52:00,39.0,11.0,30.11,WSW,258,3.0,5.0,31,0.00,,,0.00,,2013-02-12 02:52:00,
2013-02-11 19:01:00,38.0,11.0,30.12,West,281,1.0,5.0,33,0.00,,,0.00,,2013-02-12 03:01:00,
2013-02-11 19:11:00,37.0,15.0,30.12,West,268,3.0,6.0,40,0.00,,,0.00,,2013-02-12 03:11:00,
2013-02-11 19:21:00,37.0,15.0,30.12,West,268,3.0,6.0,40,0.00,,,0.00,,2013-02-12 03:21:00,
2013-02-11 19:31:00,37.0,16.0,30.12,WSW,254,5.0,9.0,41,0.00,,,0.00,,2013-02-12 03:31:00,
2013-02-11 19:41:00,37.0,17.0,30.13,WSW,239,6.0,9.0,43,0.00,,,0.00,,2013-02-12 03:41:00,
2013-02-11 19:51:00,37.0,17.0,30.13,WSW,239,6.0,9.0,43,0.00,,,0.00,,2013-02-12 03:51:00,
2013-02-11 20:01:00,36.0,16.0,30.14,WSW,237,7.0,9.0,44,0.00,,,0.00,,2013-02-12 04:01:00,
2013-02-11 20:11:00,36.0,16.0,30.14,WSW,237,7.0,9.0,44,0.00,,,0.00,,2013-02-12 04:11:00,
2013-02-11 20:21:00,35.0,16.0,30.14,WSW,255,6.0,9.0,46,0.00,,,0.00,,2013-02-12 04:21:00,
2013-02-11 20:31:00,35.0,17.0,30.14,SW,233,8.0,11.0,48,0.00,,,0.00,,2013-02-12 04:31:00,
2013-02-11 20:41:00,35.0,17.0,30.14,SW,233,8.0,11.0,48,0.00,,,0.00,,2013-02-12 04:41:00,
2013-02-11 20:52:00,35.0,18.0,30.15,WSW,247,6.0,12.0,49,0.00,,,0.00,,2013-02-12 04:52:00,
2013-02-11 21:01:00,34.0,18.0,30.15,West,259,7.0,10.0,52,0.00,,,0.00,,2013-02-12 05:01:00,
2013-02-11 21:11:00,33.0,18.0,30.16,SW,232,10.0,12.0,53,0.00,,,0.00,,2013-02-12 05:11:00,
2013-02-11 21:21:00,33.0,18.0,30.16,SW,232,10.0,12.0,53,0.00,,,0.00,,2013-02-12 05:21:00,
2013-02-11 21:31:00,33.0,17.0,30.16,West,266,8.0,12.0,52,0.00,,,0.00,,2013-02-12 05:31:00,
2013-02-11 21:41:00,33.0,17.0,30.16,West,266,8.0,12.0,52,0.00,,,0.00,,2013-02-12 05:41:00,
2013-02-11 21:52:00,32.0,17.0,30.17,WSW,253,8.0,11.0,54,0.00,,,0.00,,2013-02-12 05:52:00,
2013-02-11 22:01:00,31.0,16.0,30.16,WSW,252,9.0,11.0,53,0.00,,,0.00,,2013-02-12 06:01:00,
2013-02-11 22:11:00,31.0,16.0,30.17,WSW,254,8.0,11.0,54,0.00,,,0.00,,2013-02-12 06:11:00,
2013-02-11 22:21:00,31.0,16.0,30.17,WSW,254,8.0,11.0,54,0.00,,,0.00,,2013-02-12 06:21:00,
2013-02-11 22:31:00,31.0,17.0,30.17,WSW,249,9.0,12.0,55,0.00,,,0.00,,2013-02-12 06:31:00,
2013-02-11 22:42:00,31.0,17.0,30.17,WSW,249,9.0,11.0,55,0.00,,,0.00,,2013-02-12 06:42:00,
2013-02-11 22:52:00,31.0,17.0,30.17,WSW,249,9.0,11.0,55,0.00,,,0.00,,2013-02-12 06:52:00,
2013-02-11 23:01:00,30.0,16.0,30.18,WSW,254,9.0,14.0,56,0.00,,,0.00,,2013-02-12 07:01:00,
2013-02-11 23:11:00,30.0,16.0,30.18,WSW,254,9.0,14.0,56,0.00,,,0.00,,2013-02-12 07:11:00,
2013-02-11 23:21:00,30.0,16.0,30.18,WSW,250,10.0,13.0,56,0.00,,,0.00,,2013-02-12 07:21:00,
2013-02-11 23:31:00,30.0,16.0,30.18,WSW,251,12.0,15.0,55,0.00,,,0.00,,2013-02-12 07:31:00,
2013-02-11 23:41:00,30.0,16.0,30.18,WSW,251,12.0,15.0,55,0.00,,,0.00,,2013-02-12 07:41:00,
2013-02-11 23:51:00,29.0,15.0,30.18,WSW,249,11.0,13.0,55,0.00,,,0.00,,2013-02-12 07:51:00,